Beaver Bay, MN

8:50 AM CDT on August 24, 2016 (GMT -0500)
Silver Bay Municipal

Weather History for KBFW - May, 2014

Change the Weather History Date:

Monday, May 26, 2014

  Actual Average Record
Temperature  
Mean Temperature 66 °F -  
Max Temperature 82 °F 60 °F 82 °F (2014)
Min Temperature 50 °F 36 °F 30 °F (1999)
Cooling Degree Days 1    
Growing Degree Days 16 (Base 50)    
Moisture  
Dew Point 58 °F    
Average Humidity 75    
Maximum Humidity 100    
Minimum Humidity 48    
Precipitation  
Precipitation 0.00 in - - ()
Sea Level Pressure  
Sea Level Pressure 29.87 in    
Wind  
Wind Speed 2 mph (NW)    
Max Wind Speed 14 mph    
Max Gust Speed 21 mph    
Visibility 10 miles    
Events      
Averages and records for this station are not official NWS values.
T = Trace of Precipitation, MM = Missing Value Source: NWS Daily Summary

Daily Weather History Graph

Daily Weather History Graph

Search for Another Location

Airport or City:

Trip Planner

Search our weather history database for the weather conditions in past years. The results will help you decide how hot, cold, wet, or windy it might be!

Date:

Astronomy

May. 26, 2014 Rise Set
Actual Time 5:17 AM CDT 8:48 PM CDT
Civil Twilight 4:39 AM CDT 9:26 PM CDT
Nautical Twilight 3:49 AM CDT 10:17 PM CDT
Astronomical Twilight 2:42 AM CDT 11:24 PM CDT
Moon 4:10 AM CDT (5/26) 6:42 PM CDT (5/26)
Length of Visible Light 16h 46m
Length of Day
15h 30m
Waning Crescent, 5% of the Moon is Illuminated
May 26
Waning Crescent
May 28
New
Jun 5
First Quarter
Jun 12
Full
Jun 19
Last Quarter

Hourly Weather History & Observations

Time (CDT) Temp. Heat Index Dew Point Humidity Pressure Visibility Wind Dir Wind Speed Gust Speed Precip Events Conditions
12:13 AM 55.4 °F - 51.8 °F 88% 29.88 in 10.0 mi Calm Calm - N/A   Clear
12:34 AM 53.6 °F - 51.8 °F 94% 29.88 in 10.0 mi Calm Calm - N/A   Clear
12:54 AM 53.6 °F - 51.8 °F 94% 29.88 in 10.0 mi Calm Calm - N/A   Clear
1:13 AM 53.6 °F - 51.8 °F 94% 29.87 in 10.0 mi Calm Calm - N/A   Clear
1:34 AM 53.6 °F - 51.8 °F 94% 29.87 in 10.0 mi Calm Calm - N/A   Clear
1:54 AM 51.8 °F - 51.8 °F 100% 29.87 in 10.0 mi Calm Calm - N/A   Clear
2:13 AM 53.6 °F - 51.8 °F 94% 29.87 in 10.0 mi Calm Calm - N/A   Clear
2:33 AM 51.8 °F - 51.8 °F 100% 29.87 in 10.0 mi Calm Calm - N/A   Clear
2:54 AM 51.8 °F - 51.8 °F 100% 29.86 in 10.0 mi Calm Calm - N/A   Clear
3:13 AM 51.8 °F - 51.8 °F 100% 29.86 in 10.0 mi Calm Calm - N/A   Clear
3:33 AM 51.8 °F - 51.8 °F 100% 29.86 in 10.0 mi Calm Calm - N/A   Clear
4:13 AM 51.8 °F - 51.8 °F 100% 29.86 in 10.0 mi Calm Calm - N/A   Clear
4:34 AM 51.8 °F - 51.8 °F 100% 29.86 in 10.0 mi Calm Calm - N/A   Clear
4:53 AM 50.0 °F - 50.0 °F 100% 29.86 in 10.0 mi Calm Calm - N/A   Clear
5:13 AM 51.8 °F - 51.8 °F 100% 29.86 in 10.0 mi Calm Calm - N/A   Clear
5:35 AM 53.6 °F - 51.8 °F 94% 29.86 in 10.0 mi Calm Calm - N/A   Clear
5:56 AM 51.8 °F - 51.8 °F 100% 29.86 in 10.0 mi Calm Calm - N/A   Clear
6:14 AM 53.6 °F - 53.6 °F 100% 29.86 in 10.0 mi Calm Calm - N/A   Clear
6:34 AM 55.4 °F - 55.4 °F 100% 29.86 in 10.0 mi Calm Calm - N/A   Clear
6:53 AM 57.2 °F - 57.2 °F 100% 29.86 in 10.0 mi Calm Calm - N/A   Clear
7:13 AM 60.8 °F - 60.8 °F 100% 29.86 in 10.0 mi Calm Calm - N/A   Clear
7:33 AM 66.2 °F - 62.6 °F 88% 29.86 in 10.0 mi Calm Calm - N/A   Clear
7:53 AM 69.8 °F - 62.6 °F 78% 29.86 in 10.0 mi SSW 3.5 mph - N/A   Clear
8:13 AM 71.6 °F - 62.6 °F 73% 29.86 in 7.0 mi Calm Calm - N/A   Clear
8:33 AM 71.6 °F - 62.6 °F 73% 29.86 in 10.0 mi WSW 4.6 mph - N/A   Clear
8:54 AM 73.4 °F - 62.6 °F 69% 29.86 in 10.0 mi West 4.6 mph - N/A   Clear
9:14 AM 75.2 °F - 62.6 °F 65% 29.86 in 10.0 mi West 4.6 mph - N/A   Clear
9:34 AM 75.2 °F - 62.6 °F 65% 29.85 in 10.0 mi WSW 5.8 mph - N/A   Clear
9:53 AM 77.0 °F - 62.6 °F 61% 29.86 in 10.0 mi West 6.9 mph - N/A   Clear
10:13 AM 78.8 °F - 62.6 °F 57% 29.86 in 10.0 mi Calm Calm - N/A   Clear
10:34 AM 78.8 °F - 62.6 °F 57% 29.86 in 10.0 mi Calm Calm - N/A   Clear
10:53 AM 78.8 °F - 62.6 °F 57% 29.86 in 10.0 mi WNW 6.9 mph - N/A   Clear
11:14 AM 78.8 °F - 62.6 °F 57% 29.86 in 10.0 mi WNW 6.9 mph - N/A   Clear
11:33 AM 80.6 °F 81.8 °F 62.6 °F 54% 29.86 in 10.0 mi SW 3.5 mph - N/A   Clear
12:13 PM 80.6 °F 81.5 °F 60.8 °F 51% 29.85 in 10.0 mi NNW 5.8 mph - N/A   Clear
12:34 PM 80.6 °F 81.5 °F 60.8 °F 51% 29.85 in 10.0 mi WNW 3.5 mph - N/A   Clear
12:53 PM 80.6 °F 81.5 °F 60.8 °F 51% 29.85 in 10.0 mi WNW 3.5 mph - N/A   Clear
1:13 PM 80.6 °F 81.5 °F 60.8 °F 51% 29.86 in 10.0 mi NW 4.6 mph - N/A   Clear
1:33 PM 80.6 °F 81.5 °F 60.8 °F 51% 29.86 in 10.0 mi North 4.6 mph - N/A   Clear
1:54 PM 80.6 °F 81.5 °F 60.8 °F 51% 29.85 in 10.0 mi NNW 4.6 mph - N/A   Clear
2:33 PM 80.6 °F 81.1 °F 59.0 °F 48% 29.85 in 10.0 mi West 3.5 mph - N/A   Clear
2:53 PM 80.6 °F 81.1 °F 59.0 °F 48% 29.85 in 10.0 mi Calm Calm - N/A   Clear
3:13 PM 80.6 °F 81.1 °F 59.0 °F 48% 29.84 in 10.0 mi Calm Calm - N/A   Clear
3:34 PM 82.4 °F 82.9 °F 60.8 °F 48% 29.84 in 10.0 mi North 5.8 mph - N/A   Clear
3:54 PM 82.4 °F 82.9 °F 60.8 °F 48% 29.84 in 10.0 mi North 5.8 mph - N/A   Clear
4:13 PM 78.8 °F - 62.6 °F 57% 29.84 in 10.0 mi ESE 5.8 mph - N/A   Clear
4:34 PM 77.0 °F - 62.6 °F 61% 29.84 in 10.0 mi East 6.9 mph - N/A   Clear
4:54 PM 77.0 °F - 62.6 °F 61% 29.85 in 10.0 mi ESE 4.6 mph - N/A   Clear
5:14 PM 77.0 °F - 62.6 °F 61% 29.85 in 7.0 mi East 5.8 mph - N/A   Clear
5:34 PM 75.2 °F - 62.6 °F 65% 29.85 in 10.0 mi East 6.9 mph - N/A   Clear
5:53 PM 75.2 °F - 62.6 °F 65% 29.85 in 10.0 mi SE 6.9 mph - N/A   Clear
6:13 PM 75.2 °F - 60.8 °F 61% 29.85 in 10.0 mi Calm Calm - N/A   Clear
6:33 PM 73.4 °F - 60.8 °F 65% 29.85 in 10.0 mi Calm Calm - N/A   Clear
6:55 PM 73.4 °F - 62.6 °F 69% 29.85 in 10.0 mi ENE 3.5 mph - N/A   Clear
7:13 PM 73.4 °F - 60.8 °F 65% 29.86 in 10.0 mi Calm Calm - N/A   Clear
7:33 PM 73.4 °F - 60.8 °F 65% 29.86 in 10.0 mi Calm Calm - N/A   Clear
7:53 PM 71.6 °F - 62.6 °F 73% 29.87 in 10.0 mi Calm Calm - N/A   Clear
8:13 PM 69.8 °F - 62.6 °F 78% 29.88 in 10.0 mi Calm Calm - N/A   Clear
8:33 PM 68.0 °F - 60.8 °F 78% 29.88 in 10.0 mi Calm Calm - N/A   Clear
8:54 PM 66.2 °F - 60.8 °F 83% 29.89 in 10.0 mi Calm Calm - N/A   Clear
9:14 PM 64.4 °F - 59.0 °F 83% 29.90 in 10.0 mi Calm Calm - N/A   Clear
9:33 PM 62.6 °F - 57.2 °F 82% 29.90 in 10.0 mi Calm Calm - N/A   Clear
10:14 PM 60.8 °F - 57.2 °F 88% 29.91 in 10.0 mi Calm Calm - N/A   Clear
10:53 PM 59.0 °F - 57.2 °F 94% 29.92 in 10.0 mi Calm Calm - N/A   Clear
11:14 PM 60.8 °F - 55.4 °F 82% 29.94 in 10.0 mi NE 11.5 mph 17.3 mph N/A   Clear
11:33 PM 60.8 °F - 53.6 °F 77% 29.95 in 10.0 mi NE 13.8 mph 20.7 mph N/A   Clear
11:54 PM 59.0 °F - 53.6 °F 82% 29.96 in 10.0 mi NE 11.5 mph 17.3 mph N/A   Clear